SCP
0 0 0 0 0 0 0 0 0 0 0 0 0 0 0 0 0 0 0 0 0 0 0 0 0 0 0 0 0 0 0 0 0 0 0 0 0 0 0 0 0 0 0
0 0 0 0 0 0 0 0 0 0 0 0 0 0 0 0 0 0 0 0 0 0 0 0 0 0 0 0 0 0 0 0 0 0 0 0 0 0 0 0 0 0 0
0 0 0 0 0 0 0 0 0 0 0 0 0 0 0 0 0 0 0 0 0 0 0 0 0 0 0 0 0 0 0 0 0 0 0 0 0 0 0 0 0 0 0
0 0 0 0 0 0 0 0 0 0 0 0 0 0 0 0 0 0 0 0 0 0 0 0 0 0 0 0 0 0 0 0 0 0 0 0 0 0 0 0 0 0 0
0 0 0 0 0 0 0 0 0 0 0 0 0 0 0 0 0 0 0 0 0 0 0 0 0 0 0 0 0 0 0 0 0 0 0 0 0 0 0 0 0 0 0
0 0 0 0 0 0 0 0 0 0 0 0 0 0 0 0 0 0 0 0 0 0 0 0 0 0 0 0 0 0 0 0 0 0 0 0 0 0 0 0 0 0 0
0 0 0 0 0 0 0 0 0 0 0 0 0 0 0 0 0 0 0 0 0 0 0 0 0 0 0 0 0 0 0 0 0 0 0 0 0 0 0 0 0 0 0
0 0 0 0 0 0 0 0 0 0 0 0 0 0 0 0 0 0 0 0 0 0 0 0 0 0 0 0 0 0 0 0 0 0 0 0 0 0 0 0 0 0 0
0 0 0 0 0 0 0 0 0 0 0 0 0 0 0 0 0 0 0 0 0 0 0 0 0 0 0 0 0 0 0 0 0 0 0 0 0 0 0 0 0 0 0
0 0 0 0 0 0 0 0 0 0 0 0 0 0 0 0 0 0 0 0 0 0 0 0 0 0 0 0 0 0 0 0 0 0 0 0 0 0 0 0 0 0 0
0 0 0 0 0 0 0 0 0 0 0 0 0 0 0 0 0 0 0 0 0 0 0 0 0 0 0 0 0 0 0 0 0 0 0 0 0 0 0 0 0 0 0
0 0 0 0 0 0 0 0 0 0 0 0 0 0 0 0 0 0 0 0 0 0 0 0 0 0 0 0 0 0 0 0 0 0 0 0 0 0 0 0 0 0 0
0 0 0 0 0 0 0 0 0 0 0 0 0 0 0 0 0 0 0 0 0 0 0 0 0 0 0 0 0 0 0 0 0 0 0 0 0 0 0 0 0 0 0
0 0 0 0 0 0 0 0 0 0 0 0 0 0 0 0 0 0 0 0 0 0 0 0 0 0 0 0 0 0 0 0 0 0 0 0 0 0 0 0 0 0 0
0 0 0 0 0 0 0 0 0 0 0 0 0 0 0 0 0 0 0 0 0 0 0 0 0 0 0 0 0 0 0 0 0 0 0 0 0 0 0 0 0 0 0
0 0 0 0 0 0 0 0 0 0 0 0 0 0 0 0 0 0 0 0 0 0 0 0 0 0 0 0 0 0 0 0 0 0 0 0 0 0 0 0 0 0 0
0 0 0 0 0 0 0 0 0 0 0 0 0 0 0 0 0 0 0 0 0 0 0 0 0 0 0 0 0 0 0 0 0 0 0 0 0 0 0 0 0 0 0
0 0 0 0 0 0 0 0 0 0 0 0 0 0 0 0 0 0 0 0 0 0 0 0 0 0 0 0 0 0 0 0 0 0 0 0 0 0 0 0 0 0 0
0 0 0 0 0 0 0 0 0 0 0 0 0 0 0 0 0 0 0 0 0 0 0 0 0 0 0 0 0 0 0 0 0 0 0 0 0 0 0 0 0 0 0
0 0 0 0 0 0 0 0 0 0 0 0 0 0 0 0 0 0 0 0 0 0 0 0 0 0 0 0 0 0 0 0 0 0 0 0 0 0 0 0 0 0 0
0 0 0 0 0 0 0 0 0 0 0 0 0 0 0 0 0 0 0 0 0 0 0 0 0 0 0 0 0 0 0 0 0 0 0 0 0 0 0 0 0 0 0
0 0 0 0 0 0 0 0 0 0 0 0 0 0 0 0 0 0 0 0 0 0 0 0 0 0 0 0 0 0 0 0 0 0 0 0 0 0 0 0 0 0 0
0 0 0 0 0 0 0 0 0 0 0 0 0 0 0 0 0 0 0 0 0 0 0 0 0 0 0 0 0 0 0 0 0 0 0 0 0 0 0 0 0 0 0
0 0 0 0 0 0 0 0 0 0 0 0 0 0 0 0 0 0 0 0 0 0 0 0 0 0 0 0 0 0 0 0 0 0 0 0 0 0 0 0 0 0 0
0 0 0 0 0 0 0 0 0 0 0 0 0 0 0 0 0 0 0 0 0 0 0 0 0 0 0 0 0 0 0 0 0 0 0 0 0 0 0 0 0 0 0
0 0 0 0 0 0 0 0 0 0 0 0 0 0 0 0 0 0 0 0 0 0 0 0 0 0 0 0 0 0 0 0 0 0 0 0 0 0 0 0 0 0 0
Wind_Speed
7 7 7 7 7 7 6 6 5 5 4 2 3 2 2 2 3 3 3 4 5 5 5 7 5 5 6 6 7 6 7 6 5 7 8 8 9 8 7 8 8 9 10
8 8 8 8 8 8 7 7 7 6 6 3 2 2 3 3 3 3 2 4 5 5 5 5 7 6 5 6 6 6 7 6 4 6 8 7 6 5 6 5 6 7 6
10 10 10 9 9 9 9 8 7 6 6 4 4 3 3 5 4 3 3 4 5 6 6 6 7 7 8 6 6 7 8 7 6 4 6 6 6 6 4 4 4 4 5
10 10 10 10 10 10 9 9 8 7 6 6 6 6 6 6 6 5 4 5 5 6 6 6 6 6 7 6 7 6 6 7 8 5 5 6 7 7 6 5 3 4 5
11 10 10 10 9 9 8 7 7 7 6 6 5 6 7 5 5 5 5 6 5 5 5 6 6 6 7 6 7 7 7 7 8 7 6 6 6 8 9 8 7 6 5
10 10 9 8 7 7 6 6 6 6 5 5 5 5 6 6 7 7 7 6 5 4 4 5 5 7 6 6 7 7 8 7 8 8 8 8 8 7 7 9 9 8 6
10 9 9 9 8 7 6 5 5 5 4 4 4 5 5 6 7 7 6 6 6 5 4 6 6 6 6 7 7 7 8 8 8 8 8 8 8 7 8 9 9 10 8
9 8 7 7 7 6 6 5 4 4 4 4 4 4 5 6 5 5 7 7 6 6 6 7 7 7 8 8 7 8 8 7 8 10 9 8 9 8 8 8 9 10 9
8 7 7 7 6 6 5 5 4 4 4 4 4 5 6 6 7 7 8 7 6 7 7 8 8 8 8 8 8 8 8 8 9 10 10 9 9 8 8 8 8 9 10
9 8 8 8 7 7 6 5 5 4 4 5 5 5 5 6 7 8 8 8 9 8 9 9 9 9 9 9 9 9 8 8 9 8 9 9 10 9 8 9 9 9 10
10 9 8 8 7 7 6 6 5 5 5 6 5 6 7 7 7 7 8 8 9 9 9 9 10 10 10 9 8 10 10 10 10 10 10 10 11 9 9 9 9 9 9
9 9 9 8 7 7 6 6 5 6 6 5 5 6 7 7 8 8 8 8 9 9 10 10 10 10 10 9 10 10 10 11 11 11 11 11 10 11 10 9 11 10 9
9 9 9 8 8 7 6 5 5 5 5 5 6 7 7 8 8 8 9 9 9 10 10 10 11 11 10 10 10 10 11 11 12 12 12 12 11 11 10 10 11 10 10
10 10 9 8 7 6 6 6 5 5 5 6 6 7 8 8 8 9 9 9 9 10 10 10 11 11 11 11 11 10 11 11 11 12 12 12 12 12 12 10 11 11 11
11 10 9 8 8 7 6 6 6 5 5 6 7 7 7 8 8 9 9 9 10 10 10 10 11 11 10 10 9 10 11 11 12 12 12 12 12 11 10 10 11 10 10
11 10 10 9 8 8 7 6 6 5 5 6 7 7 8 8 9 9 9 9 10 10 10 10 11 11 10 4 3 9 12 12 13 12 12 12 12 14 15 17 17 15 13
10 10 10 9 8 8 7 6 6 5 6 7 7 7 8 9 9 10 10 10 10 10 10 10 11 11 10 6 7 9 12 14 13 13 12 11 10 10 12 15 19 19 20
9 9 9 9 8 8 7 6 5 6 6 7 7 8 8 9 9 9 10 10 9 9 9 10 11 11 10 6 8 9 12 14 14 13 13 12 12 12 11 12 13 14 15
9 8 9 9 8 7 7 6 6 6 7 7 7 8 8 9 9 10 10 9 9 10 10 10 10 11 11 7 8 9 11 11 13 13 12 12 12 8 7 12 14 14 13
9 9 9 8 8 8 7 7 7 7 7 7 7 7 8 9 10 10 10 9 9 10 10 10 10 11 11 6 7 8 10 11 10 10 10 10 11 7 5 11 13 14 14
10 10 9 9 8 8 8 8 7 7 7 6 7 7 8 9 10 10 9 10 10 10 10 11 11 10 10 8 8 9 9 10 10 9 9 6 6 8 8 11 13 13 11
11 11 10 9 8 9 9 8 8 7 6 6 7 8 8 9 8 9 9 10 10 10 10 10 10 9 7 6 5 9 11 11 11 10 9 5 2 5 9 10 11 10 10
10 10 11 10 9 9 9 9 8 7 6 7 8 8 9 8 9 9 10 9 9 9 8 8 9 8 6 4 8 10 12 12 10 9 8 8 7 9 11 15 14 11 11
9 9 10 10 9 10 10 10 8 7 7 8 8 8 8 9 8 7 8 8 8 8 8 8 8 8 7 6 4 4 6 11 11 10 9 12 15 13 12 9 11 11 11
6 7 9 9 9 9 9 9 8 8 8 9 8 8 9 8 7 8 8 9 9 8 9 10 10 9 9 6 6 7 8 8 7 8 9 9 8 8 9 8 8 8 9
4 5 7 8 8 8 8 8 8 9 9 9 9 8 7 6 7 8 8 9 11 10 11 14 13 11 11 11 10 10 11 11 9 8 10 9 8 8 8 7 7 8 9
Wind_Direction
161 161 168 172 173 177 181 186 191 177 199 213 245 261 288 309 320 328 3 331 332 332 313 307 311 292 294 302 295 290 281 275 291 288 283 271 252 245 246 245 250 245 240
173 178 186 189 197 199 203 205 209 206 219 217 257 285 309 302 318 324 331 319 327 318 306 318 300 300 300 281 282 280 291 291 287 296 299 290 265 224 248 245 241 250 250
189 192 199 204 209 213 215 219 220 220 229 232 240 244 245 259 272 303 306 327 318 310 313 308 302 307 291 293 298 286 274 286 287 283 298 302 311 323 261 261 261 266 265
202 204 206 211 218 220 219 220 223 226 226 231 251 274 290 302 317 309 318 313 297 300 301 300 300 298 296 299 282 280 285 276 278 269 264 281 306 297 297 276 266 273 275
208 213 216 219 224 223 221 218 219 225 227 238 248 260 277 295 300 306 299 293 294 289 293 297 297 292 289 302 302 298 283 279 277 284 280 273 264 259 274 288 297 288 280
213 217 219 218 219 216 215 215 212 219 224 233 246 262 286 294 300 298 302 295 296 294 299 295 293 286 293 296 287 288 274 276 284 283 281 277 275 275 278 282 285 289 290
209 212 213 211 209 210 209 206 204 213 217 232 251 263 276 279 273 283 295 297 300 302 318 309 296 292 292 285 284 277 283 279 274 270 273 274 273 279 280 283 288 291 289
203 203 201 198 199 197 194 196 200 214 226 241 255 266 268 272 284 295 301 297 297 307 318 296 286 286 285 283 281 279 271 270 272 270 272 275 271 273 272 275 283 286 285
192 190 184 183 179 179 181 189 197 219 237 254 258 261 267 281 294 294 276 283 293 294 294 290 286 283 281 279 279 274 279 276 270 269 261 258 268 265 267 269 269 276 283
188 183 177 173 170 172 174 188 204 225 247 256 263 270 272 273 279 285 298 296 293 290 288 286 285 282 279 274 270 272 266 268 268 269 276 275 272 273 269 266 265 263 270
186 178 174 171 174 178 185 198 210 229 246 261 270 280 281 283 281 279 283 288 290 291 285 284 284 282 279 276 271 271 276 269 269 268 264 261 268 273 274 267 262 260 261
182 174 173 176 185 194 201 209 225 240 252 265 271 275 280 281 282 284 288 288 287 286 287 285 283 281 279 276 272 271 272 270 268 267 266 264 262 259 263 268 267 264 265
181 178 180 188 195 203 213 225 237 253 262 266 269 275 279 283 285 289 290 290 288 287 288 286 283 282 281 277 273 272 272 270 269 267 264 262 262 262 262 263 266 265 258
184 188 189 195 201 207 215 231 248 260 266 272 275 279 283 289 292 291 290 289 289 289 288 287 286 284 281 277 273 272 272 271 269 266 263 261 259 258 260 260 259 262 266
191 196 199 198 202 207 216 228 244 253 263 270 276 282 285 288 289 291 291 291 290 288 288 287 285 282 278 271 277 281 278 276 273 268 262 258 258 266 268 271 269 263 258
201 202 204 204 205 209 218 226 237 249 254 265 277 287 290 288 291 293 292 292 290 288 287 284 284 282 279 302 293 279 283 280 275 272 268 264 248 241 238 248 260 269 269
208 207 206 206 207 209 214 225 236 249 257 267 277 284 286 287 292 296 296 295 293 289 287 285 284 283 283 269 250 254 272 275 274 273 271 268 265 248 247 236 232 241 246
213 209 207 203 203 205 208 220 234 243 258 269 277 284 286 288 293 295 294 294 291 290 288 287 286 285 283 257 242 250 262 267 270 269 268 267 270 266 264 264 255 248 239
215 211 210 204 200 204 206 213 234 247 259 269 277 283 288 291 292 293 295 295 292 289 288 286 287 285 284 259 235 247 273 269 270 270 269 269 269 265 244 258 262 261 257
211 205 202 201 196 201 201 217 237 249 262 273 280 285 285 287 290 292 293 292 289 286 287 289 288 286 284 269 224 233 269 274 276 274 269 256 252 270 242 256 257 256 255
209 202 202 205 203 196 197 217 239 253 267 276 278 277 279 282 283 286 286 286 285 288 289 288 285 280 276 267 229 225 264 281 284 283 279 277 196 223 233 246 257 261 270
208 203 204 208 202 196 199 218 235 250 260 265 268 272 276 282 288 285 283 282 283 282 280 281 284 282 273 258 237 213 238 270 280 280 281 290 174 231 242 243 251 255 261
214 209 208 209 202 198 205 223 233 240 247 254 261 268 275 279 281 280 281 279 275 277 284 289 291 294 297 268 211 221 232 238 255 274 292 295 270 260 248 237 238 239 239
223 214 212 213 207 202 207 220 229 233 241 250 259 263 267 271 273 276 276 279 284 285 288 290 293 297 297 296 296 270 240 225 237 256 261 243 243 246 260 253 222 228 235
236 224 218 219 216 209 212 218 219 224 239 248 254 260 266 272 280 275 275 281 285 296 294 297 299 300 300 334 0 315 303 306 319 312 284 274 263 249 242 242 237 231 228
262 241 236 232 224 215 216 218 216 217 230 244 249 257 264 270 274 279 277 243 240 253 246 250 263 281 279 289 289 278 271 270 273 275 270 271 268 264 259 254 245 231 228